Aérodrome :
LOGIN :

S'inscrire | Disclaimer

   EN    FR    IT 

 










Légende :    VFR   VFR Marginal   IFR   IFR Intensif   IFR Très Intensif
Visi : 
Plafond : 
>= 8 km
>= 3000ft
5 à 8 km
1000 à 3000 ft
1500m à 5 km
500 à 1000 ft
800 à 1500m
200 à 500 ft
< 800m
< 200 ft
Symboles :   Orages  Brouillard  Fortes neiges  Fortes précipitations  Vent > 20 kt
SIGMETs :   Divers  Orages  Givrage  Turbulence  Onde Orograph.  Cendres Volcan.






- Altitude de l'aérodrome : 308 ft


ESIA - Karlsborg Air Base

DERNIER METAR :
  • 270250Z AUTO 21008KT 9999 -RA OVC042/// 09/08 Q0999

METARs EXPIRÉS :
  • 270220Z AUTO 20007KT 9999 FEW034/// BKN050/// OVC060/// 09/08 Q0999
  • 270150Z AUTO 21007KT 9999 BKN038/// OVC047/// 09/08 Q0999
  • 270120Z AUTO 20007KT 9999 -SHRA OVC046/// 09/08 Q0999
  • 270050Z AUTO 21008KT 9999 -SHRA FEW036/// OVC052/// 09/08 Q1000
  • 270020Z AUTO 21007KT 9999 FEW034/// OVC046/// 09/08 Q1000

Prévision TAF périmée.



MET'MAP, la Météo Aéronautique d'un coup d'oeil ! - Copyright ORBIFLY Décembre 2007 - Disclaimer

ORBIFLY MET'MAP TEAM :

Programmation & Développement : Alexandra Zaïnal
Sur une idée originale de : Baudouin d'Aumeries
Assistance à la programmation : Marc-Olivier Méhu
Soutien technique & logistique : Manuel Goepfert

Contact : metmap@orbifly.com




SOURCES & CREDITS :

   NOAA